Flag for Canada Weather past 2 weeks in Rothesay, New Brunswick, Canada

Now
45 °F

Passing clouds.


Feels Like: 45 °F
Forecast: 48 / 75 °F
Wind: No wind

Location: Saint John

Current Time: Jul 4, 2015 at 5:50:09 AM

Latest Report: Jul 4, 2015 at 5:00 AM


Visibility: 15 mi

Pressure: 29.98 "Hg

Humidity: 100%

Dew point: 45 °F

Location of RothesayLocation

Historic Weather in Rothesay — Graph

°F

Rothesay temperature yesterday

Maximum temperature yesterday: 72 °F (at 12:00 PM)
Minimum temperature yesterday: 48 °F (at 2:00 AM)
Average temperature yesterday: 60 °F

Past Weeks' High & Low Weather Summary

 TemperatureHumidityPressure
High77 °F (Jun 24, 5:00 PM)100% (Jun 19, 11:00 AM)30.21 "Hg (Jun 19, 11:00 AM)
Low39 °F (Jun 20, 6:00 AM)32% (Jun 20, 12:00 PM)29.63 "Hg (Jun 22, 4:00 AM)
Average57 °F80%29.92 "Hg
* Reported Jun 19 4:00 AM — Jul 4 4:00 AM, Rothesay, Weather by CustomWeather, © 2015

Note: Actual official high and low records may vary slightly from our data, if they occured in-between our weather recording intervals... More about our weather records

Advertising

Rothesay weather history for previous 24 hours

 ConditionsComfort  
Time TempWeatherWind HumidityBarometerVisibility
4:00 AM
Sat, Jul 4
43 °FClear.No wind100%29.96 "Hg15 mi
3:00 AM45 °FClear.No wind93%29.95 "Hg15 mi
2:00 AM45 °FClear.No wind93%29.94 "Hg15 mi
1:00 AM48 °FClear.No wind94%29.93 "Hg15 mi
12:00 AM48 °FPassing clouds.No wind94%29.92 "Hg15 mi
11:00 PM
Fri, Jul 3
48 °FPassing clouds.No wind94%29.91 "Hg15 mi
10:00 PM55 °FPassing clouds.2 mph77%29.90 "Hg15 mi
9:00 PM59 °FPassing clouds.5 mph68%29.88 "Hg15 mi
8:00 PM64 °FPassing clouds.6 mph56%29.86 "Hg15 mi
7:00 PM68 °FScattered clouds.15 mph49%29.83 "Hg15 mi
6:00 PM68 °FScattered clouds.17 mph49%29.83 "Hg15 mi
5:00 PM70 °FScattered clouds.21 mph46%29.83 "Hg15 mi
4:00 PM70 °FScattered clouds.18 mph46%29.83 "Hg15 mi
3:00 PM72 °FScattered clouds.21 mph44%29.82 "Hg15 mi
2:00 PM72 °FScattered clouds.18 mph47%29.81 "Hg15 mi
1:00 PM70 °FScattered clouds.15 mph50%29.82 "Hg15 mi
12:00 PM72 °FPassing clouds.14 mph50%29.83 "Hg15 mi
11:00 AM70 °FPassing clouds.8 mph46%29.84 "Hg15 mi
10:00 AM66 °FPassing clouds.3 mph52%29.85 "Hg15 mi
9:00 AM59 °FPassing clouds.No wind88%29.86 "Hg15 mi
8:00 AM54 °FPartly sunny.No wind94%29.86 "Hg15 mi
7:00 AM50 °FOvercast.No wind100%29.87 "Hg15 mi
6:00 AM48 °FPassing clouds.No wind94%29.87 "Hg15 mi
5:00 AM48 °FPassing clouds.No wind100%29.85 "Hg15 mi
Weather by CustomWeather, © 2015

See weather overviewHow to use our weather pages